Date String (YYYY-MM-DD hh:mm:ss) UTC,Instrument flags,absolute air pressure of the measurement (hPa),sample flow rate (lpm),inlet stack bypass flow (lpm),air temperature of the measurement (°C),ambient temperature measured by the external sensor (°C),aerosol sample conditioner tube jacket temperature (°C),OPC LED temperature (°C),internal box temperature (°C),relative humidity of the measurement (%),span deviation,mass concentration of particles derived from Lorenz-Mie calculation of OPC scattering (μg/m³),mass concentration of particles derived from Lorenz-Mie calculation of OPC scattering (μg/m³),mass concentration of particles derived from Lorenz-Mie calculation of OPC scattering (μg/m³)
DateTimeUTC,F1_M11,P_M11,Q1_M11,Q2_M11,T1_M11,T2_M11,T3_M11,T4_M11,T5_M11,U1_M11,ZSPAN_M11,X0_M11,X2_M11,X1_M11
2023-06-19 22:00:00,SystemResetWarning,0824.2,4.99,000.00,029.1,027.5,000.0,037.5,030.9,17.7,0000.0,0015.16,0004.45,0003.53
2023-06-19 22:01:00,SystemResetWarning,0824.1,5.00,000.00,029.1,026.1,000.0,037.4,030.8,17.5,0000.0,0015.80,0004.39,0003.54
2023-06-19 22:02:00,SystemResetWarning,0824.2,5.00,000.00,029.1,024.4,000.0,037.4,030.6,15.8,0000.0,0016.23,0004.39,0003.55
2023-06-19 22:03:00,SystemResetWarning,0824.2,5.01,000.00,029.0,024.5,000.0,037.4,030.6,16.2,0000.0,0015.98,0004.42,0003.55
2023-06-19 22:04:00,SystemResetWarning,0824.1,5.00,000.00,029.0,025.0,000.0,037.4,030.4,16.7,0000.0,0016.03,0004.44,0003.55
2023-06-19 22:05:00,SystemResetWarning,0824.0,5.00,000.00,028.9,025.5,000.0,037.4,030.4,19.0,0000.0,0014.88,0004.46,0003.56
2023-06-19 22:06:00,SystemResetWarning,0823.9,5.00,000.00,028.9,026.0,000.0,037.4,030.5,17.5,0000.0,0014.04,0004.47,0003.56
2023-06-19 22:07:00,SystemResetWarning,0824.0,5.00,000.00,029.0,026.5,000.0,037.4,030.6,17.5,0000.0,0013.24,0004.47,0003.57
2023-06-19 22:08:00,SystemResetWarning,0824.0,4.98,000.00,029.0,026.9,000.0,037.4,030.7,18.1,0000.0,0013.58,0004.48,0003.56
2023-06-19 22:09:00,SystemResetWarning,0824.0,4.99,000.00,029.0,027.2,000.0,037.4,030.8,17.7,0000.0,0013.64,0004.46,0003.56
2023-06-19 22:10:00,SystemResetWarning,0823.9,5.01,000.00,029.1,027.5,000.0,037.5,030.9,16.2,0000.0,0013.33,0004.45,0003.56
2023-06-19 22:11:00,SystemResetWarning,0824.0,5.00,000.00,029.1,027.7,000.0,037.5,030.9,18.2,0000.0,0013.00,0004.49,0003.56
2023-06-19 22:12:00,SystemResetWarning,0823.9,4.99,000.00,029.2,026.7,000.0,037.5,030.8,17.4,0000.0,0012.48,0004.48,0003.55
2023-06-19 22:13:00,SystemResetWarning,0823.9,5.00,000.00,029.1,024.7,000.0,037.4,030.7,17.1,0000.0,0010.99,0004.43,0003.54
2023-06-19 22:14:00,SystemResetWarning,0823.8,5.01,000.00,029.1,024.5,000.0,037.4,030.7,17.7,0000.0,0011.05,0004.37,0003.52
2023-06-19 22:15:00,SystemResetWarning,0823.8,5.00,000.00,029.0,025.0,000.0,037.4,030.5,18.9,0000.0,0011.09,0004.32,0003.52
2023-06-19 22:16:00,SystemResetWarning,0823.9,5.00,000.00,029.0,025.5,000.0,037.4,030.5,18.9,0000.0,0011.89,0004.30,0003.52
2023-06-19 22:17:00,SystemResetWarning,0823.9,5.00,000.00,029.0,025.9,000.0,037.4,030.6,18.6,0000.0,0012.77,0004.31,0003.52
2023-06-19 22:18:00,SystemResetWarning,0823.9,4.99,000.00,029.0,026.4,000.0,037.4,030.6,18.6,0000.0,0013.45,0004.34,0003.51
2023-06-19 22:19:00,SystemResetWarning,0823.9,5.01,000.00,029.0,026.8,000.0,037.5,030.7,18.0,0000.0,0013.04,0004.32,0003.51
2023-06-19 22:20:00,SystemResetWarning,0824.0,5.00,000.00,029.1,027.2,000.0,037.5,030.8,19.3,0000.0,0013.14,0004.32,0003.50
2023-06-19 22:21:00,SystemResetWarning,0823.9,5.00,000.00,029.1,027.5,000.0,037.5,030.9,20.0,0000.0,0013.14,0004.34,0003.50
2023-06-19 22:22:00,SystemResetWarning,0824.0,5.00,000.00,029.2,027.6,000.0,037.5,031.0,17.3,0000.0,0012.81,0004.29,0003.49
2023-06-19 22:23:00,SystemResetWarning,0823.9,4.99,000.00,029.2,025.9,000.0,037.5,030.9,17.7,0000.0,0012.93,0004.30,0003.47
2023-06-19 22:24:00,SystemResetWarning,0823.9,5.02,000.00,029.1,024.3,000.0,037.4,030.7,18.8,0000.0,0013.96,0004.31,0003.46
2023-06-19 22:25:00,SystemResetWarning,0823.8,5.01,000.00,029.1,024.6,000.0,037.4,030.7,15.7,0000.0,0014.61,0004.37,0003.45
2023-06-19 22:26:00,SystemResetWarning,0823.8,4.99,000.00,029.0,025.1,000.0,037.4,030.5,17.4,0000.0,0014.73,0004.42,0003.44
2023-06-19 22:27:00,SystemResetWarning,0823.8,5.01,000.00,029.0,025.6,000.0,037.4,030.5,17.7,0000.0,0013.98,0004.40,0003.43
2023-06-19 22:28:00,SystemResetWarning,0823.9,5.00,000.00,029.0,026.1,000.0,037.4,030.6,16.1,0000.0,0013.73,0004.37,0003.41
2023-06-19 22:29:00,SystemResetWarning,0823.9,4.99,000.00,029.0,026.6,000.0,037.5,030.7,17.5,0000.0,0013.14,0004.33,0003.39
2023-06-19 22:30:00,SystemResetWarning,0823.9,5.00,000.00,029.1,027.0,000.0,037.5,030.8,17.7,0000.0,0013.86,0004.30,0003.37
2023-06-19 22:31:00,SystemResetWarning,0823.9,5.00,000.00,029.1,027.3,000.0,037.5,030.9,18.6,0000.0,0015.07,0004.28,0003.35
2023-06-19 22:32:00,SystemResetWarning,0823.9,5.00,000.00,029.2,027.6,000.0,037.5,031.0,19.1,0000.0,0014.74,0004.26,0003.36
2023-06-19 22:33:00,SystemResetWarning,0823.9,4.98,000.00,029.2,027.8,000.0,037.6,031.0,20.0,0000.0,0014.43,0004.30,0003.38
2023-06-19 22:34:00,SystemResetWarning,0823.9,5.00,000.00,029.2,026.5,000.0,037.5,030.8,20.0,0000.0,0014.48,0004.32,0003.40
2023-06-19 22:35:00,SystemResetWarning,0823.9,5.00,000.00,029.1,024.7,000.0,037.5,030.4,18.9,0000.0,0014.72,0004.33,0003.43
2023-06-19 22:36:00,SystemResetWarning,0823.9,5.02,000.00,029.1,024.7,000.0,037.4,030.6,20.0,0000.0,0013.70,0004.34,0003.45
2023-06-19 22:37:00,SystemResetWarning,0823.9,5.01,000.00,029.1,025.1,000.0,037.4,030.5,20.2,0000.0,0013.92,0004.37,0003.48
2023-06-19 22:38:00,SystemResetWarning,0823.9,4.99,000.00,029.0,025.6,000.0,037.5,030.5,21.3,0000.0,0014.82,0004.43,0003.51
2023-06-19 22:39:00,SystemResetWarning,0823.9,5.00,000.00,029.0,026.1,000.0,037.5,030.6,22.1,0000.0,0015.92,0004.49,0003.53
2023-06-19 22:40:00,SystemResetWarning,0824.0,5.00,000.00,029.0,026.6,000.0,037.5,030.7,20.5,0000.0,0015.96,0004.52,0003.55
2023-06-19 22:41:00,SystemResetWarning,0823.9,5.00,000.00,029.1,027.0,000.0,037.5,030.8,20.8,0000.0,0016.24,0004.56,0003.58
2023-06-19 22:42:00,SystemResetWarning,0823.9,5.01,000.00,029.1,027.3,000.0,037.5,030.9,21.9,0000.0,0014.35,0004.54,0003.61
2023-06-19 22:43:00,SystemResetWarning,0824.0,4.99,000.00,029.2,027.6,000.0,037.6,030.9,20.4,0000.0,0014.74,0004.59,0003.64
2023-06-19 22:44:00,SystemResetWarning,0824.0,4.99,000.00,029.2,027.5,000.0,037.6,031.0,19.3,0000.0,0015.11,0004.63,0003.65
2023-06-19 22:45:00,SystemResetWarning,0823.9,5.00,000.00,029.2,025.6,000.0,037.5,030.9,18.3,0000.0,0015.14,0004.61,0003.65
2023-06-19 22:46:00,SystemResetWarning,0823.9,5.00,000.00,029.2,024.3,000.0,037.5,030.7,18.5,0000.0,0014.35,0004.59,0003.65
2023-06-19 22:47:00,SystemResetWarning,0823.9,5.01,000.00,029.1,024.8,000.0,037.5,030.7,18.4,0000.0,0014.44,0004.57,0003.65
2023-06-19 22:48:00,SystemResetWarning,0823.8,5.00,000.00,029.1,025.2,000.0,037.5,030.5,17.4,0000.0,0014.40,0004.55,0003.65
2023-06-19 22:49:00,SystemResetWarning,0823.9,5.00,000.00,029.0,025.7,000.0,037.5,030.6,18.6,0000.0,0013.23,0004.49,0003.65
2023-06-19 22:50:00,SystemResetWarning,0823.9,5.00,000.00,029.1,026.2,000.0,037.5,030.7,18.9,0000.0,0012.65,0004.47,0003.65
2023-06-19 22:51:00,SystemResetWarning,0823.9,5.00,000.00,029.1,026.7,000.0,037.5,030.8,19.7,0000.0,0012.17,0004.42,0003.65
2023-06-19 22:52:00,SystemResetWarning,0823.9,4.99,000.00,029.1,027.1,000.0,037.5,030.9,19.4,0000.0,0013.01,0004.40,0003.65
2023-06-19 22:53:00,SystemResetWarning,0823.9,5.00,000.00,029.2,027.4,000.0,037.6,030.9,19.0,0000.0,0014.33,0004.47,0003.65
2023-06-19 22:54:00,SystemResetWarning,0823.9,5.01,000.00,029.2,027.5,000.0,037.6,031.0,18.7,0000.0,0014.88,0004.46,0003.63
2023-06-19 22:55:00,SystemResetWarning,0823.9,4.98,000.00,029.2,025.9,000.0,037.5,030.8,19.0,0000.0,0015.14,0004.48,0003.62
2023-06-19 22:56:00,SystemResetWarning,0823.9,5.02,000.00,029.2,024.4,000.0,037.5,030.7,17.9,0000.0,0015.25,0004.49,0003.62
2023-06-19 22:57:00,SystemResetWarning,0823.8,5.01,000.00,029.1,024.7,000.0,037.4,030.7,17.1,0000.0,0016.48,0004.52,0003.61
2023-06-19 22:58:00,SystemResetWarning,0823.9,4.99,000.00,029.1,025.1,000.0,037.5,030.5,17.0,0000.0,0017.35,0004.55,0003.61
2023-06-19 22:59:00,SystemResetWarning,0823.9,5.00,000.00,029.0,025.6,000.0,037.5,030.6,16.5,0000.0,0017.76,0004.56,0003.62
